カタログに戻る

FENGYUN 1C DEB

運用中SSO
NORAD 30390·DEBRIS·🇨🇳 China

打ち上げ May 10, 1999 から Taiyuan Satellite Launch Center

Loading…

次のパス (今後24時間)

TLE

最新Source: Space-Track

元期: Sep 13, 2026, 05:01 UTC

1 30390U 99025ADD 26256.20922463  .00002162  00000-0  80674-3 0  9998
2 30390  98.8155 348.3131 0066572  83.3411 307.3875 14.31729959 13098

AllMySatでFENGYUN 1C DEBをリアルタイム追跡

Download on the App Store